Stations météo

réclame
Mon MeteoGroup
Junsele, Suède (2244): Température de l'air & dewpoint: 17.04.2018 04:00:00 - 23.04.2018 04:00:00 (CEST)Junsele, Suède (2244): Vitesse du vent & gusts: 17.04.2018 04:00:00 - 23.04.2018 04:00:00 (CEST)Junsele, Suède (2244): Direction du vent: 17.04.2018 04:00:00 - 23.04.2018 04:00:00 (CEST)Junsele, Suède (2244): reduced air pressure: 17.04.2018 04:00:00 - 23.04.2018 04:00:00 (CEST)Junsele, Suède (2244): visibility: 17.04.2018 04:00:00 - 23.04.2018 04:00:00 (CEST)Junsele, Suède (2244): Quantités de précipitations: 17.04.2018 04:00:00 - 23.04.2018 04:00:00 (CEST)
Date & Time tt [°C] td [°C] ff [km/h] ff [knt] fx [km/h] fx [knt] dd ppp [hPa] vv [km] rr [mm]
23.04.2018 04:00:00 - - - - - - - - - -
23.04.2018 03:00:00 2,5 0,4 8 4 20 11 ESE 1011,8 50 0,0
23.04.2018 02:00:00 2,5 0,4 4 2 12 6 SE 1012,3 50 0,0
23.04.2018 01:00:00 2,7 0,4 5 3 9 5 E 1012,8 50 0,0
23.04.2018 00:00:00 3,2 0,6 5 3 11 6 E 1013,1 50 0,0
22.04.2018 23:00:00 4,1 0,6 5 3 16 9 ESE 1013,2 50 0,0
22.04.2018 22:00:00 4,8 0,9 8 4 14 8 SE 1013,3 50 0,0
22.04.2018 21:00:00 5,5 1,0 6 4 12 7 ESE 1013,2 50 0,0
22.04.2018 20:00:00 7,2 0,4 6 3 12 7 SE 1013,1 50 0,0
22.04.2018 19:00:00 8,9 0,1 5 3 9 5 SE 1012,9 50 0,0
22.04.2018 18:00:00 9,6 0,0 1 1 9 5 ESE 1012,9 50 0,0
22.04.2018 17:00:00 9,9 0,0 6 3 13 7 WSW 1013,0 50 0,0
22.04.2018 16:00:00 9,0 0,7 2 1 5 3 NE 1013,5 50 0,0
22.04.2018 15:00:00 9,5 0,1 2 1 10 5 WNW 1013,7 50 0,0
22.04.2018 14:00:00 10,8 0,8 3 2 11 6 WNW 1013,7 46 0,0
22.04.2018 13:00:00 8,2 0,7 5 3 17 9 NNE 1013,8 44 0,0
22.04.2018 12:00:00 9,6 1,5 4 2 15 8 NNW 1013,5 50 0,0
22.04.2018 11:00:00 7,9 1,3 6 3 18 10 NW 1013,7 50 0,0
22.04.2018 10:00:00 6,4 1,1 6 3 18 10 WNW 1013,7 50 0,0
22.04.2018 09:00:00 5,4 1,3 8 4 22 12 WNW 1013,6 50 0,0
22.04.2018 08:00:00 4,2 1,1 7 4 14 7 WNW 1013,1 50 0,0
22.04.2018 07:00:00 3,9 1,1 7 4 16 8 W 1012,5 50 0,0
22.04.2018 06:00:00 3,0 0,9 6 3 12 6 WNW 1011,7 50 0,0
22.04.2018 05:00:00 2,5 0,6 4 2 18 10 NE 1011,3 50 0,0
22.04.2018 04:00:00 3,3 0,9 6 3 23 12 WNW 1010,5 50 0,0
22.04.2018 03:00:00 4,1 1,1 9 5 22 12 WNW 1009,6 50 0,0
22.04.2018 02:00:00 3,5 0,5 8 5 27 15 W 1009,1 50 0,0
22.04.2018 01:00:00 3,6 0,6 13 7 24 13 W 1008,4 50 0,0
22.04.2018 00:00:00 3,1 1,0 8 4 28 15 W 1007,8 50 0,1
21.04.2018 23:00:00 3,9 0,8 8 5 32 17 W 1007,3 50 0,0
21.04.2018 22:00:00 4,4 0,7 10 6 30 16 WNW 1006,8 26 0,0
21.04.2018 21:00:00 5,2 0,0 12 6 27 14 W 1006,0 50 0,0
21.04.2018 20:00:00 5,6 -0,3 13 7 28 15 W 1005,6 50 0,0
21.04.2018 19:00:00 6,1 -0,2 10 6 34 19 W 1005,4 50 0,0
21.04.2018 18:00:00 6,7 -0,1 9 5 29 16 W 1005,1 50 0,0
21.04.2018 17:00:00 6,4 -0,1 11 6 47 26 W 1004,6 50 0,0
21.04.2018 16:00:00 8,3 -0,2 14 8 35 19 W 1004,0 50 0,0
21.04.2018 15:00:00 7,4 -0,1 18 10 41 22 W 1003,8 50 0,0
21.04.2018 14:00:00 8,2 -0,1 18 10 46 25 W 1003,4 49 0,0
21.04.2018 13:00:00 7,6 -0,1 15 8 46 25 W 1003,0 50 0,0
21.04.2018 12:00:00 6,9 0,8 12 6 33 18 W 1002,9 50 0,0
21.04.2018 11:00:00 6,2 0,9 12 6 38 21 W 1002,6 50 0,0
21.04.2018 10:00:00 5,9 1,0 14 8 31 17 W 1001,8 47 0,0
21.04.2018 09:00:00 5,0 1,7 10 5 23 12 W 1001,6 46 0,0
21.04.2018 08:00:00 4,3 2,0 10 5 22 12 W 1001,8 50 0,0
21.04.2018 07:00:00 3,8 2,5 5 3 15 8 W 1002,0 50 0,0
21.04.2018 06:00:00 3,1 2,5 6 3 17 9 W 1002,1 50 0,0
21.04.2018 05:00:00 2,4 2,4 3 2 9 5 W 1002,6 49 0,0
21.04.2018 04:00:00 2,5 2,5 2 1 9 5 WNW 1003,3 44 0,0
21.04.2018 03:00:00 2,3 2,3 5 3 10 5 WNW 1003,7 19 0,0
21.04.2018 02:00:00 2,3 2,3 5 3 11 6 W 1004,4 5 0,0
21.04.2018 01:00:00 3,0 3,0 6 3 12 6 W 1004,7 26 0,0
21.04.2018 00:00:00 3,5 3,5 6 4 13 7 W 1005,2 34 0,0
20.04.2018 23:00:00 3,7 3,7 7 4 13 7 W 1005,6 33 0,1
20.04.2018 22:00:00 4,0 3,6 4 2 14 8 W 1006,4 22 0,1
20.04.2018 21:00:00 4,4 3,2 3 1 12 7 NNW 1006,3 50 0,0
20.04.2018 20:00:00 5,4 4,0 4 2 8 5 W 1007,3 50 0,0
20.04.2018 19:00:00 6,0 4,0 4 2 14 8 SW 1008,1 50 0,0
20.04.2018 18:00:00 7,5 3,4 5 3 10 5 W 1009,3 31 0,0
20.04.2018 17:00:00 8,9 2,5 3 2 18 10 WNW 1009,6 50 0,0
20.04.2018 16:00:00 9,3 2,4 6 4 28 15 WNW 1010,6 50 0,0
20.04.2018 15:00:00 10,7 2,0 6 3 21 11 NW 1011,3 50 0,0
20.04.2018 14:00:00 12,9 2,2 5 3 24 13 NNW 1011,7 45 0,0
20.04.2018 13:00:00 11,9 2,6 9 5 22 12 WNW 1012,2 42 0,0
20.04.2018 12:00:00 12,2 4,2 3 2 16 9 NW 1012,6 50 0,0
20.04.2018 11:00:00 10,6 3,8 7 4 16 9 W 1013,2 46 0,0
20.04.2018 10:00:00 8,6 3,0 5 3 14 7 W 1013,9 41 0,0
20.04.2018 09:00:00 6,7 2,2 4 2 10 5 W 1014,6 38 0,0
20.04.2018 08:00:00 4,2 1,7 1 1 5 3 WNW 1015,2 37 0,0
20.04.2018 07:00:00 2,3 1,1 2 1 4 2 NE 1015,5 47 0,0
20.04.2018 06:00:00 1,6 0,7 1 1 3 1 NNE 1015,9 44 0,0
20.04.2018 05:00:00 1,8 0,8 1 1 4 2 W 1016,4 47 0,0
20.04.2018 04:00:00 2,1 0,9 2 1 9 5 N 1017,1 50 0,0
20.04.2018 03:00:00 2,0 1,1 2 1 5 3 NNW 1017,4 46 0,0
20.04.2018 02:00:00 1,9 0,6 2 1 4 2 WSW 1018,5 50 0,0
20.04.2018 01:00:00 3,0 1,5 3 1 4 2 E 1018,8 50 0,0
20.04.2018 00:00:00 3,9 1,6 2 1 5 3 E 1019,8 50 0,0
19.04.2018 23:00:00 4,8 2,5 3 1 7 4 ESE 1020,5 50 0,0
19.04.2018 22:00:00 6,1 2,6 5 3 8 5 ESE 1020,9 50 0,0
19.04.2018 21:00:00 5,9 2,4 2 1 5 3 ESE 1021,7 28 0,0
19.04.2018 20:00:00 6,9 2,0 1 1 5 3 SE 1022,2 32 0,0
19.04.2018 19:00:00 10,0 2,8 2 1 5 3 S 1022,5 49 0,0
19.04.2018 18:00:00 11,3 2,3 2 1 16 9 WSW 1023,0 44 0,0
19.04.2018 17:00:00 13,1 2,9 8 5 16 9 WSW 1023,7 45 0,0
19.04.2018 16:00:00 12,8 2,6 5 3 13 7 W 1024,1 36 0,0
19.04.2018 15:00:00 13,5 2,1 3 2 15 8 W 1024,6 34 0,0
19.04.2018 14:00:00 12,5 2,4 4 2 16 9 N 1025,2 34 0,0
19.04.2018 13:00:00 12,6 2,2 5 3 23 12 NW 1025,5 40 0,0
19.04.2018 12:00:00 11,4 2,4 6 4 21 11 NW 1025,8 36 0,0
19.04.2018 11:00:00 10,7 3,0 6 3 19 10 NNW 1026,0 30 0,0
19.04.2018 10:00:00 9,1 3,7 8 5 25 13 WNW 1026,0 29 0,0
19.04.2018 09:00:00 7,5 4,3 8 5 18 10 W 1026,1 38 0,0
19.04.2018 08:00:00 5,5 4,1 8 4 14 7 W 1026,1 33 0,0
19.04.2018 07:00:00 1,8 1,8 2 1 7 4 NNW 1026,1 3,8 0,0
19.04.2018 06:00:00 0,1 0,1 3 1 7 4 SW 1025,9 2,0 0,0
19.04.2018 05:00:00 -0,1 -0,1 2 1 6 4 WSW 1025,6 1,7 0,0
19.04.2018 04:00:00 0,2 0,2 5 3 11 6 W 1025,1 13 0,0
19.04.2018 03:00:00 1,1 1,1 5 3 8 4 WSW 1024,7 0,8 0,0
19.04.2018 02:00:00 0,8 0,7 2 1 9 5 SW 1024,3 25 0,0
19.04.2018 01:00:00 2,6 2,6 5 3 13 7 W 1023,7 12 0,0
19.04.2018 00:00:00 1,9 1,8 5 3 16 9 W 1023,5 27 0,0
18.04.2018 23:00:00 2,7 2,4 5 3 15 8 WNW 1022,7 50 0,0
18.04.2018 22:00:00 3,2 3,2 6 3 12 7 W 1022,4 39 0,0
18.04.2018 21:00:00 3,6 3,6 5 3 8 4 WSW 1021,9 2,0 0,0
18.04.2018 20:00:00 4,1 4,0 6 3 14 8 W 1021,3 7 0,0
18.04.2018 19:00:00 4,7 4,6 7 4 13 7 W 1020,8 7 0,0
18.04.2018 18:00:00 4,4 4,3 6 3 15 8 W 1020,9 7 0,2
18.04.2018 17:00:00 4,6 4,3 6 3 13 7 W 1020,5 11 0,1
18.04.2018 16:00:00 5,2 4,6 4 2 10 5 W 1020,0 7 0,1
18.04.2018 15:00:00 5,5 4,9 1 1 6 3 WNW 1019,4 11 0,2
18.04.2018 14:00:00 5,8 4,0 3 2 7 4 WNW 1019,0 11 0,1
18.04.2018 13:00:00 5,3 4,4 1 1 5 3 NW 1018,9 13 0,5
18.04.2018 12:00:00 6,0 3,8 1 1 7 4 SSW 1018,5 14 0,5
18.04.2018 11:00:00 6,6 1,5 3 2 8 4 SW 1018,2 28 0,2
18.04.2018 10:00:00 6,7 -1,2 3 2 10 5 W 1017,7 41 0,0
18.04.2018 09:00:00 7,1 -1,3 1 1 7 4 SE 1017,3 50 0,0
18.04.2018 08:00:00 4,8 -1,9 4 2 6 3 ESE 1017,6 47 0,0
18.04.2018 07:00:00 -1,3 -3,2 3 1 5 3 E 1018,4 37 0,0
18.04.2018 06:00:00 -2,2 -3,5 2 1 5 3 E 1018,8 26 0,0
18.04.2018 05:00:00 -2,8 -4,1 3 2 5 3 NE 1019,1 50 0,0
18.04.2018 04:00:00 -3,0 -4,1 3 1 4 2 NE 1019,4 50 0,0
18.04.2018 03:00:00 -3,0 -4,3 2 1 5 3 NE 1019,6 50 0,0
18.04.2018 02:00:00 -2,0 -4,0 2 1 5 3 NE 1019,7 50 0,0
18.04.2018 01:00:00 -0,7 -3,9 1 1 6 3 N 1019,6 46 0,0
18.04.2018 00:00:00 0,1 -3,6 5 3 8 5 E 1019,5 50 0,0
17.04.2018 23:00:00 1,1 -4,3 2 1 5 3 E 1019,3 50 0,0
17.04.2018 22:00:00 3,7 -4,0 2 1 6 3 ESE 1018,7 50 0,0
17.04.2018 21:00:00 4,8 -3,5 3 1 9 5 ENE 1018,1 37 0,0
17.04.2018 20:00:00 7,9 -3,0 4 2 8 4 NE 1017,4 50 0,0
17.04.2018 19:00:00 12,1 -5,0 3 2 8 4 NNE 1016,6 28 0,0
17.04.2018 18:00:00 14,5 -5,3 3 2 9 5 N 1016,2 47 0,0
17.04.2018 17:00:00 14,6 -4,7 3 2 11 6 WNW 1016,1 40 0,0
17.04.2018 16:00:00 14,0 -3,8 4 2 14 8 NW 1016,0 41 0,0
17.04.2018 15:00:00 15,5 -2,9 3 2 10 5 W 1015,8 43 0,0
17.04.2018 14:00:00 14,7 -3,6 4 2 11 6 W 1016,0 40 0,0
17.04.2018 13:00:00 13,6 -2,4 4 2 13 7 W 1016,1 46 0,0
17.04.2018 12:00:00 12,7 -2,0 5 3 13 7 SW 1016,4 35 0,0
17.04.2018 11:00:00 11,6 -1,2 5 3 10 5 W 1016,4 27 0,0
17.04.2018 10:00:00 8,0 -0,5 3 2 8 4 SW 1016,4 40 0,0
17.04.2018 09:00:00 4,9 -0,3 3 2 8 4 W 1016,5 37 0,0
17.04.2018 08:00:00 2,7 -0,2 4 2 10 6 W 1016,4 42 0,0
17.04.2018 07:00:00 -0,5 -1,3 1 1 3 2 SSW 1016,3 41 0,0
17.04.2018 06:00:00 -1,7 -2,1 1 1 3 2 NNW 1016,1 28 0,0
17.04.2018 05:00:00 -3,1 -3,4 1 1 2 1 SSE 1015,9 21 0,0
17.04.2018 04:00:00 -2,7 -3,0 1 1 3 2 NNW 1015,9 25 0,0

tt = Température de l'air
td = dewpoint
ff = Vitesse du vent
fx = gusts
dd = Direction du vent
ppp = reduced air pressure
vv = visibility
rr = Quantités de précipitations

stations d'obs. à proximité